TimeEST,TemperatureF,Dew PointF,Humidity,Sea Level PressureIn,VisibilityMPH,Wind Direction,Wind SpeedMPH,Gust SpeedMPH,PrecipitationIn,Events,Conditions,WindDirDegrees,DateUTC
12:53 AM,18.0,15.1,88,30.43,10.0,Calm,Calm,-,N/A,,Partly Cloudy,0,2013-01-15 05:53:00
1:53 AM,17.1,14.0,88,30.44,10.0,Calm,Calm,-,N/A,,Scattered Clouds,0,2013-01-15 06:53:00
2:53 AM,17.1,14.0,88,30.43,9.0,Calm,Calm,-,N/A,,Partly Cloudy,0,2013-01-15 07:53:00
3:53 AM,15.1,12.0,88,30.43,8.0,Calm,Calm,-,N/A,,Partly Cloudy,0,2013-01-15 08:53:00
4:53 AM,15.1,12.0,88,30.43,8.0,Calm,Calm,-,N/A,,Scattered Clouds,0,2013-01-15 09:53:00
5:51 AM,15.8,12.2,86,30.38,7.0,Calm,Calm,-,N/A,,Mostly Cloudy,0,2013-01-15 10:51:00
6:04 AM,15.8,12.2,86,30.38,7.0,Calm,Calm,-,N/A,,Partly Cloudy,0,2013-01-15 11:04:00
6:53 AM,15.1,12.0,88,30.41,7.0,East,3.5,-,N/A,,Partly Cloudy,100,2013-01-15 11:53:00
7:53 AM,14.0,10.9,88,30.42,7.0,Calm,Calm,-,N/A,,Clear,0,2013-01-15 12:53:00
8:53 AM,17.1,14.0,88,30.44,6.0,Calm,Calm,-,N/A,,Clear,0,2013-01-15 13:53:00
9:53 AM,21.9,17.1,82,30.43,8.0,Calm,Calm,-,N/A,,Scattered Clouds,0,2013-01-15 14:53:00
10:53 AM,27.0,19.9,75,30.44,10.0,SSE,4.6,-,N/A,,Mostly Cloudy,160,2013-01-15 15:53:00
11:53 AM,28.9,19.0,67,30.42,10.0,Variable,6.9,-,N/A,,Clear,0,2013-01-15 16:53:00
12:33 PM,30.2,17.6,60,30.34,10.0,Variable,6.9,-,N/A,,Mostly Cloudy,0,2013-01-15 17:33:00
12:53 PM,28.9,17.1,61,30.37,10.0,Calm,Calm,-,N/A,,Mostly Cloudy,0,2013-01-15 17:53:00
1:00 PM,28.4,17.6,64,30.34,10.0,Calm,Calm,-,N/A,,Scattered Clouds,0,2013-01-15 18:00:00
1:25 PM,30.2,19.4,64,30.34,10.0,SE,5.8,-,N/A,,Mostly Cloudy,130,2013-01-15 18:25:00
1:36 PM,30.2,17.6,60,30.33,10.0,South,3.5,-,N/A,,Mostly Cloudy,170,2013-01-15 18:36:00
1:53 PM,30.0,18.0,61,30.35,10.0,SSW,6.9,-,N/A,,Mostly Cloudy,200,2013-01-15 18:53:00
2:53 PM,30.9,18.0,59,30.32,10.0,Calm,Calm,-,N/A,,Clear,0,2013-01-15 19:53:00
3:53 PM,30.9,17.1,57,30.32,10.0,Calm,Calm,-,N/A,,Clear,0,2013-01-15 20:53:00
4:53 PM,30.0,18.0,61,30.32,10.0,Calm,Calm,-,N/A,,Clear,0,2013-01-15 21:53:00
5:53 PM,28.9,18.0,64,30.31,10.0,South,3.5,-,N/A,,Mostly Cloudy,170,2013-01-15 22:53:00
6:53 PM,27.0,17.1,66,30.30,10.0,Calm,Calm,-,N/A,,Clear,0,2013-01-15 23:53:00
7:53 PM,23.0,18.0,81,30.28,10.0,Calm,Calm,-,N/A,,Clear,0,2013-01-16 00:53:00
8:53 PM,21.0,17.1,85,30.23,10.0,Calm,Calm,-,N/A,,Clear,0,2013-01-16 01:53:00
9:53 PM,19.0,16.0,88,30.22,9.0,Calm,Calm,-,N/A,,Clear,0,2013-01-16 02:53:00
10:53 PM,19.0,16.0,88,30.20,7.0,Calm,Calm,-,N/A,,Clear,0,2013-01-16 03:53:00
11:53 PM,18.0,15.1,88,30.16,8.0,SSE,3.5,-,N/A,,Clear,150,2013-01-16 04:53:00